Date String (YYYY-MM-DD hh:mm:ss) UTC,Instrument flags,Ambient pressure (hPa),Sample flow (lpm),Bypass flow (lpm),Sample temperature (°C),Ambient temperature (°C),ASC tube jacket temperature (°C),LED temperature (°C),Box temperature (°C),Sample RH (%),Span deviation,Mass concentration (μg/m³),Mass concentration (μg/m³),Mass concentration (μg/m³)
DateTimeUTC,F1_M11,P_M11,Q1_M11,Q2_M11,T1_M11,T2_M11,T3_M11,T4_M11,T5_M11,U1_M11,ZSPAN_M11,X0_M11,X2_M11,X1_M11
2023-01-19 12:00:00,,0819.2,4.99,0.00,21.8,20.1,00.0,30.8,23.3,06.9,0000.0,0003.09,0000.54,0000.37
2023-01-19 12:01:00,,0819.2,5.00,0.00,21.9,20.8,00.0,30.8,23.5,06.8,0000.0,0003.06,0000.55,0000.38
2023-01-19 12:02:00,,0819.3,4.99,0.00,22.0,21.9,00.0,30.7,23.8,06.5,0000.0,0003.31,0000.54,0000.39
2023-01-19 12:03:00,,0819.4,4.99,0.00,22.1,22.8,00.0,30.8,24.0,06.4,0000.0,0004.01,0000.52,0000.38
2023-01-19 12:04:00,,0819.3,4.99,0.00,22.2,22.8,00.0,30.8,24.2,06.2,0000.0,0004.03,0000.53,0000.37
2023-01-19 12:05:00,,0819.3,4.99,0.00,22.2,22.2,00.0,30.8,24.1,06.1,0000.0,0003.54,0000.56,0000.37
2023-01-19 12:06:00,,0819.3,5.01,0.00,22.2,21.6,00.0,30.9,24.0,06.3,0000.0,0002.70,0000.58,0000.37
2023-01-19 12:07:00,,0819.3,5.00,0.00,22.2,21.2,00.0,30.9,23.8,06.3,0000.0,0002.60,0000.58,0000.36
2023-01-19 12:08:00,,0819.3,5.01,0.00,22.1,20.9,00.0,30.9,23.7,06.2,0000.0,0002.02,0000.57,0000.36
2023-01-19 12:09:00,,0819.4,4.99,0.00,22.0,20.6,00.0,30.9,23.6,06.1,0000.0,0002.04,0000.59,0000.37
2023-01-19 12:10:00,,0819.3,5.03,0.00,22.0,20.5,00.0,30.9,23.5,06.1,0000.0,0002.03,0000.60,0000.37
2023-01-19 12:11:00,,0819.3,5.01,0.00,22.0,20.3,00.0,30.9,23.4,06.1,0000.0,0002.01,0000.59,0000.37
2023-01-19 12:12:00,,0819.3,5.00,0.00,21.9,20.2,00.0,30.9,23.3,06.4,0000.0,0001.94,0000.56,0000.35
2023-01-19 12:13:00,,0819.3,5.02,0.00,21.9,20.6,00.0,30.8,23.4,06.5,0000.0,0001.85,0000.55,0000.35
2023-01-19 12:14:00,,0819.4,5.00,0.00,22.0,21.6,00.0,30.8,23.7,06.0,0000.0,0001.38,0000.56,0000.35
2023-01-19 12:15:00,,0819.4,5.00,0.00,22.1,22.5,00.0,30.8,24.0,05.9,0000.0,0001.61,0000.59,0000.35
2023-01-19 12:16:00,,0819.4,5.02,0.00,22.1,22.3,00.0,30.8,24.0,06.0,0000.0,0001.61,0000.59,0000.35
2023-01-19 12:17:00,,0819.4,5.00,0.00,22.1,21.7,00.0,30.9,23.9,06.0,0000.0,0001.52,0000.55,0000.35
2023-01-19 12:18:00,,0819.3,5.02,0.00,22.1,21.2,00.0,30.9,23.8,05.9,0000.0,0001.50,0000.55,0000.35
2023-01-19 12:19:00,,0819.3,5.00,0.00,22.1,20.8,00.0,30.9,23.6,05.9,0000.0,0001.49,0000.54,0000.35
2023-01-19 12:20:00,,0819.2,4.99,0.00,22.0,20.5,00.0,30.9,23.5,05.9,0000.0,0001.49,0000.52,0000.34
2023-01-19 12:21:00,,0819.3,5.00,0.00,22.0,20.3,00.0,30.9,23.4,05.9,0000.0,0001.57,0000.53,0000.34
2023-01-19 12:22:00,,0819.2,5.01,0.00,21.9,20.2,00.0,30.9,23.3,05.9,0000.0,0001.65,0000.53,0000.34
2023-01-19 12:23:00,,0819.2,5.00,0.00,21.9,20.1,00.0,30.8,23.3,06.2,0000.0,0001.77,0000.53,0000.34
2023-01-19 12:24:00,,0819.3,5.00,0.00,21.9,20.9,00.0,30.8,23.5,06.2,0000.0,0001.81,0000.54,0000.34
2023-01-19 12:25:00,,0819.2,5.02,0.00,22.0,21.9,00.0,30.8,23.8,05.9,0000.0,0001.49,0000.55,0000.34
2023-01-19 12:26:00,,0819.3,5.01,0.00,22.1,22.8,00.0,30.8,24.0,06.1,0000.0,0001.09,0000.50,0000.33
2023-01-19 12:27:00,,0819.2,4.98,0.00,22.2,22.8,00.0,30.8,24.1,06.1,0000.0,0001.03,0000.47,0000.33
2023-01-19 12:28:00,,0819.2,4.99,0.00,22.2,22.1,00.0,30.9,24.0,06.1,0000.0,0001.16,0000.50,0000.32
2023-01-19 12:29:00,,0819.3,5.01,0.00,22.2,21.4,00.0,30.9,23.9,06.1,0000.0,0001.24,0000.52,0000.32
2023-01-19 12:30:00,,0819.3,5.00,0.00,22.1,21.0,00.0,30.9,23.8,06.2,0000.0,0001.25,0000.53,0000.32
2023-01-19 12:31:00,,0819.4,4.99,0.00,22.1,20.7,00.0,30.9,23.7,06.4,0000.0,0001.36,0000.57,0000.33
2023-01-19 12:32:00,,0819.4,5.00,0.00,22.0,20.6,00.0,30.9,23.5,06.5,0000.0,0001.28,0000.54,0000.33
2023-01-19 12:33:00,,0819.4,5.01,0.00,22.0,20.5,00.0,30.9,23.5,06.2,0000.0,0001.54,0000.55,0000.33
2023-01-19 12:34:00,,0819.4,5.00,0.00,21.9,20.3,00.0,30.9,23.4,05.9,0000.0,0002.95,0000.55,0000.33
2023-01-19 12:35:00,,0819.4,5.00,0.00,21.9,20.2,00.0,30.8,23.3,05.8,0000.0,0003.41,0000.53,0000.34
2023-01-19 12:36:00,,0819.4,5.02,0.00,21.9,20.8,00.0,30.8,23.5,05.8,0000.0,0003.71,0000.53,0000.34
2023-01-19 12:37:00,,0819.4,5.00,0.00,22.0,21.9,00.0,30.8,23.8,05.8,0000.0,0004.64,0000.56,0000.34
2023-01-19 12:38:00,,0819.4,5.00,0.00,22.1,22.8,00.0,30.8,24.1,05.8,0000.0,0005.08,0000.58,0000.35
2023-01-19 12:39:00,,0819.4,4.99,0.00,22.2,22.5,00.0,30.8,24.1,05.9,0000.0,0004.93,0000.54,0000.35
2023-01-19 12:40:00,,0819.4,4.99,0.00,22.2,21.9,00.0,30.9,24.0,06.0,0000.0,0004.92,0000.53,0000.35
2023-01-19 12:41:00,,0819.5,4.99,0.00,22.1,21.4,00.0,30.9,23.8,06.1,0000.0,0005.01,0000.54,0000.35
2023-01-19 12:42:00,,0819.5,4.99,0.00,22.1,21.0,00.0,30.9,23.7,05.8,0000.0,0004.91,0000.52,0000.35
2023-01-19 12:43:00,,0819.4,5.00,0.00,22.0,20.8,00.0,30.9,23.6,05.7,0000.0,0004.98,0000.55,0000.35
2023-01-19 12:44:00,,0819.4,5.00,0.00,22.0,20.5,00.0,30.9,23.5,05.7,0000.0,0004.83,0000.55,0000.35
2023-01-19 12:45:00,,0819.4,4.99,0.00,21.9,20.3,00.0,30.9,23.4,06.1,0000.0,0003.35,0000.59,0000.35
2023-01-19 12:46:00,,0819.5,5.01,0.00,21.9,20.2,00.0,30.8,23.3,06.2,0000.0,0002.76,0000.59,0000.34
2023-01-19 12:47:00,,0819.5,5.00,0.00,21.9,20.5,00.0,30.8,23.4,06.1,0000.0,0002.50,0000.59,0000.34
2023-01-19 12:48:00,,0819.4,5.00,0.00,22.0,21.6,00.0,30.8,23.7,06.4,0000.0,0001.61,0000.56,0000.34
2023-01-19 12:49:00,,0819.5,5.00,0.00,22.1,22.6,00.0,30.8,24.0,06.4,0000.0,0001.16,0000.56,0000.33
2023-01-19 12:50:00,,0819.5,5.00,0.00,22.2,22.6,00.0,30.8,24.1,06.1,0000.0,0001.21,0000.57,0000.33
2023-01-19 12:51:00,,0819.4,4.99,0.00,22.2,22.0,00.0,30.9,24.0,05.9,0000.0,0001.19,0000.57,0000.33
2023-01-19 12:52:00,,0819.4,5.00,0.00,22.2,21.5,00.0,30.9,23.9,05.7,0000.0,0001.11,0000.57,0000.34
2023-01-19 12:53:00,,0819.5,4.99,0.00,22.1,21.1,00.0,30.9,23.8,05.8,0000.0,0001.10,0000.57,0000.34
2023-01-19 12:54:00,,0819.5,5.00,0.00,22.1,20.8,00.0,30.9,23.7,06.1,0000.0,0001.08,0000.55,0000.33
2023-01-19 12:55:00,,0819.5,5.01,0.00,22.0,20.6,00.0,30.9,23.6,06.0,0000.0,0001.08,0000.54,0000.33
2023-01-19 12:56:00,,0819.5,4.99,0.00,22.0,20.5,00.0,30.9,23.6,06.4,0000.0,0000.96,0000.50,0000.33
2023-01-19 12:57:00,,0819.5,5.01,0.00,22.0,20.3,00.0,30.9,23.5,06.3,0000.0,0001.00,0000.51,0000.34
2023-01-19 12:58:00,,0819.5,5.01,0.00,21.9,20.4,00.0,30.8,23.5,06.1,0000.0,0001.03,0000.51,0000.34
2023-01-19 12:59:00,,0819.4,5.00,0.00,22.0,21.5,00.0,30.8,23.8,06.2,0000.0,0001.05,0000.52,0000.35
